Temperature
2 2 2 2 2 2 2 1 2 2 1 1 1 -0 -0 -0 -0 -1 -1 -1 -1 -1 -2 -2 -2 -2 -3 -3 -3 -3 -4 -4 -4 -4 -4 -5 -5 -5 -5 -5 -6 -6 -6 -6
1 2 1 1 1 1 1 1 1 1 1 0 -0 -0 -1 -1 -1 -1 -1 -1 -2 -2 -2 -2 -3 -3 -3 -3 -4 -4 -4 -4 -5 -5 -5 -5 -6 -6 -6 -6 -6 -6 -6 -6
1 1 1 1 1 1 0 -0 0 1 0 -2 -2 -2 -2 -2 -2 -2 -2 -2 -2 -2 -3 -3 -3 -4 -4 -4 -4 -5 -5 -5 -5 -5 -6 -6 -6 -6 -6 -7 -7 -7 -7 -7
-0 0 1 2 -0 -0 -0 -1 -1 -1 -2 -2 -2 -2 -2 -2 -2 -2 -2 -3 -3 -3 -3 -4 -4 -4 -4 -5 -5 -5 -5 -6 -6 -6 -6 -6 -7 -7 -7 -7 -7 -7 -7 -8
-1 -1 -0 0 -0 -1 -1 -1 -2 -3 -3 -3 -3 -3 -3 -2 -2 -3 -3 -3 -4 -4 -4 -4 -5 -5 -5 -5 -6 -6 -6 -6 -7 -7 -7 -7 -7 -7 -8 -8 -8 -8 -8 -8
-2 -1 0 1 -1 -1 -1 -1 -2 -3 -3 -4 -3 -4 -4 -4 -3 -4 -4 -4 -4 -5 -5 -5 -5 -6 -6 -6 -6 -7 -7 -7 -7 -8 -8 -8 -8 -8 -8 -8 -8 -8 -9 -9
-2 -2 -1 -2 -2 -1 -1 -1 -2 -2 -3 -3 -4 -4 -4 -4 -4 -4 -5 -5 -5 -5 -5 -6 -6 -6 -6 -7 -7 -7 -7 -8 -8 -8 -8 -8 -9 -9 -9 -9 -9 -9 -9 -9
-3 -2 -2 -3 -3 -2 -2 -2 -2 -2 -3 -3 -4 -4 -5 -5 -5 -5 -5 -5 -6 -6 -6 -6 -7 -7 -7 -7 -7 -8 -8 -8 -8 -8 -9 -9 -9 -9 -9 -9 -9 -10 -10 -10
-3 -2 -3 -4 -3 -3 -2 -3 -3 -3 -3 -4 -5 -5 -6 -6 -6 -6 -6 -6 -6 -7 -7 -7 -7 -8 -8 -8 -8 -8 -8 -9 -9 -9 -9 -9 -10 -10 -10 -10 -10 -11 -11 -11
-5 -5 -4 -4 -4 -3 -3 -3 -3 -3 -4 -4 -5 -6 -6 -6 -6 -7 -7 -7 -7 -7 -7 -7 -8 -8 -8 -8 -9 -9 -9 -9 -9 -10 -10 -10 -10 -10 -11 -11 -11 -11 -12 -12
-5 -5 -5 -5 -4 -4 -4 -4 -4 -4 -5 -5 -5 -6 -6 -7 -7 -7 -7 -7 -8 -8 -8 -8 -8 -8 -9 -9 -9 -9 -9 -10 -10 -10 -10 -10 -11 -11 -11 -11 -12 -12 -12 -12
-4 -5 -6 -5 -5 -5 -5 -5 -5 -5 -6 -6 -6 -6 -7 -7 -8 -8 -8 -8 -8 -8 -9 -9 -9 -9 -9 -9 -10 -10 -10 -10 -10 -11 -11 -11 -11 -11 -12 -12 -12 -12 -13 -13
-5 -5 -5 -6 -6 -6 -6 -6 -6 -6 -6 -7 -7 -7 -7 -8 -8 -8 -8 -9 -9 -9 -9 -9 -9 -9 -10 -10 -10 -10 -11 -11 -11 -11 -11 -12 -12 -12 -12 -12 -12 -13 -13 -13
-6 -6 -7 -7 -7 -7 -7 -7 -7 -7 -7 -8 -8 -8 -8 -8 -9 -9 -9 -9 -9 -9 -9 -10 -10 -10 -10 -10 -11 -11 -11 -11 -12 -12 -12 -12 -12 -13 -13 -13 -13 -13 -13 -13
-7 -7 -7 -7 -8 -8 -8 -8 -8 -8 -9 -9 -9 -9 -9 -9 -9 -9 -9 -10 -10 -10 -10 -10 -10 -10 -11 -11 -11 -11 -12 -12 -12 -12 -12 -13 -13 -13 -13 -13 -13 -13 -13 -13
-8 -8 -8 -8 -9 -9 -9 -9 -9 -9 -9 -9 -10 -10 -10 -10 -10 -10 -10 -10 -10 -10 -10 -11 -11 -11 -11 -11 -12 -12 -12 -12 -12 -13 -13 -13 -13 -13 -13 -14 -14 -14 -14 -14
-9 -9 -9 -9 -9 -9 -9 -9 -9 -10 -10 -10 -10 -10 -10 -10 -10 -10 -10 -10 -11 -11 -11 -11 -11 -11 -12 -12 -12 -12 -12 -13 -13 -13 -13 -13 -14 -14 -14 -14 -14 -14 -14 -14
-9 -9 -9 -9 -9 -10 -10 -10 -10 -10 -10 -10 -11 -11 -11 -11 -11 -11 -11 -11 -11 -11 -12 -12 -12 -12 -12 -12 -13 -13 -13 -13 -13 -13 -14 -14 -14 -14 -14 -14 -14 -14 -14 -14
-9 -9 -10 -10 -10 -10 -10 -10 -11 -11 -11 -11 -11 -11 -11 -11 -12 -12 -12 -12 -12 -12 -12 -12 -12 -13 -13 -13 -13 -13 -13 -13 -14 -14 -14 -14 -14 -14 -14 -14 -14 -15 -15 -15
-10 -10 -10 -10 -10 -10 -11 -11 -11 -11 -11 -11 -11 -12 -12 -12 -12 -12 -12 -12 -13 -13 -13 -13 -13 -13 -13 -14 -14 -14 -14 -14 -14 -14 -14 -14 -15 -15 -15 -15 -15 -15 -15 -15
-10 -10 -11 -11 -11 -11 -11 -11 -11 -12 -12 -12 -12 -12 -12 -13 -13 -13 -13 -13 -13 -13 -13 -14 -14 -14 -14 -14 -14 -14 -14 -14 -15 -15 -15 -15 -15 -15 -15 -15 -15 -15 -15 -15
-11 -11 -11 -11 -11 -12 -12 -12 -12 -12 -12 -12 -12 -13 -13 -13 -13 -13 -13 -14 -14 -14 -14 -14 -14 -14 -14 -14 -14 -15 -15 -15 -15 -15 -15 -15 -15 -15 -15 -15 -15 -15 -15 -15
-11 -12 -12 -12 -12 -12 -12 -12 -12 -13 -13 -13 -13 -13 -13 -13 -14 -14 -14 -14 -14 -14 -14 -14 -15 -15 -15 -15 -15 -15 -15 -15 -15 -15 -15 -15 -15 -15 -15 -15 -15 -15 -15 -15
-12 -12 -12 -12 -12 -12 -12 -13 -13 -13 -13 -13 -13 -14 -14 -14 -14 -14 -14 -14 -15 -15 -15 -15 -15 -15 -15 -15 -15 -15 -15 -15 -15 -15 -15 -15 -15 -15 -15 -15 -15 -15 -15 -16
-12 -13 -13 -13 -13 -13 -13 -13 -13 -13 -13 -14 -14 -14 -14 -14 -14 -14 -15 -15 -15 -15 -15 -15 -15 -15 -15 -15 -15 -15 -15 -16 -16 -16 -16 -16 -16 -16 -16 -16 -16 -16 -16 -16
-13 -13 -13 -13 -13 -13 -13 -13 -13 -14 -14 -14 -14 -14 -14 -15 -15 -15 -15 -15 -15 -15 -15 -15 -15 -15 -15 -16 -16 -16 -16 -16 -16 -16 -16 -16 -16 -16 -16 -16 -16 -16 -16 -16
-13 -13 -13 -13 -13 -14 -14 -14 -14 -14 -14 -14 -14 -14 -15 -15 -15 -15 -15 -15 -15 -15 -15 -16 -16 -16 -16 -16 -16 -16 -16 -16 -16 -16 -16 -16 -16 -16 -16 -16 -16 -16 -16 -16
Wind_Speed
4 2 2 4 6 8 9 9 9 8 8 9 7 6 4 3 3 3 2 3 3 3 3 3 2 2 2 2 2 3 3 3 2 2 2 2 2 2 2 3 3 3 4 4
3 2 1 4 6 8 9 8 9 7 9 6 2 3 3 4 4 4 3 2 3 3 3 3 3 2 2 1 1 2 3 2 2 2 1 2 2 2 3 3 3 3 4 5
3 2 2 6 8 9 6 6 8 11 9 3 3 4 5 4 4 4 3 2 2 2 3 3 2 2 2 2 1 2 2 1 1 1 2 2 3 2 3 3 3 4 5 5
1 1 5 6 1 5 6 4 5 4 2 4 4 2 2 2 4 3 2 2 2 2 2 2 2 2 2 2 2 1 1 0 1 1 2 2 2 3 3 3 4 4 5 6
2 3 6 6 2 3 5 4 4 6 4 2 4 4 2 1 2 3 3 2 2 2 2 2 2 2 3 2 2 2 1 1 2 2 2 2 3 4 3 3 4 5 5 5
3 4 6 5 1 1 3 3 3 6 6 5 5 2 3 1 3 3 3 3 3 3 3 3 2 3 4 2 2 1 1 2 2 2 2 3 4 4 4 4 5 5 6 6
5 5 6 4 2 2 4 5 2 5 5 5 4 4 3 4 3 4 4 4 4 4 3 2 2 3 3 2 0 1 2 2 2 3 3 3 3 3 4 4 5 5 6 6
4 5 7 2 2 4 4 0 2 3 3 4 4 4 4 4 4 4 4 4 3 3 2 2 2 3 2 0 1 1 2 2 3 3 3 3 3 4 4 4 4 5 6 7
6 6 2 2 2 1 1 1 1 2 3 5 5 4 5 4 4 3 3 3 2 3 2 2 1 2 1 1 1 1 2 2 3 3 3 3 4 4 4 3 4 5 5 6
3 4 2 1 1 2 1 1 1 2 3 4 4 5 4 4 3 3 2 2 2 2 2 1 1 1 0 1 1 1 1 2 3 3 4 4 3 4 4 4 4 5 6 6
3 3 1 2 1 1 2 3 3 3 3 4 5 4 4 3 3 3 2 1 2 2 1 1 1 1 1 1 0 1 2 2 3 3 4 4 4 3 5 4 6 7 5 6
5 4 3 2 1 1 2 2 3 3 3 3 4 4 4 3 2 2 2 1 1 1 0 1 1 2 2 1 1 1 2 3 2 3 3 3 4 5 8 8 11 12 11 10
3 1 1 0 1 2 2 2 2 3 3 3 2 3 3 3 2 2 1 1 1 1 1 1 1 2 3 2 2 2 3 3 3 3 3 4 4 5 6 8 10 11 12 14
1 2 1 1 1 2 4 4 4 4 3 3 2 3 3 2 2 1 1 1 1 1 1 1 2 3 3 2 2 2 3 4 4 3 4 4 4 5 5 6 7 7 10 14
3 1 2 3 4 4 4 5 5 4 3 3 3 2 2 2 1 0 1 1 0 1 1 2 3 4 4 3 2 3 3 3 3 3 3 4 4 5 5 6 6 7 7 9
3 4 5 5 4 4 4 4 4 2 2 2 2 2 2 1 1 1 1 1 0 2 3 3 4 4 4 3 3 3 3 6 5 3 3 4 4 5 5 5 6 6 7 7
3 2 2 2 2 2 2 2 2 1 1 1 1 1 2 2 2 2 2 2 2 3 3 3 4 4 4 3 3 3 3 4 6 5 4 4 5 5 5 6 6 7 7 9
1 1 2 2 2 2 2 2 2 1 1 0 1 1 1 1 1 2 3 3 3 3 3 4 4 4 4 4 3 3 3 3 4 4 4 5 5 5 5 6 7 8 7 9
3 3 3 3 2 2 2 1 1 1 1 1 1 0 0 1 2 2 3 2 3 4 4 5 6 4 4 5 4 2 3 4 4 4 5 7 7 6 6 6 7 7 8 8
4 4 4 3 3 3 2 1 1 1 1 1 1 0 1 2 2 2 2 3 3 4 5 6 5 4 5 5 5 2 3 4 5 5 5 5 6 6 6 7 7 7 7 7
3 3 3 3 3 2 2 1 1 1 1 1 0 1 2 3 3 2 2 3 4 4 5 7 5 4 4 5 5 3 3 4 5 5 5 6 6 6 7 7 7 7 7 7
2 2 2 2 2 2 2 1 1 1 1 1 1 1 1 2 3 3 3 3 4 7 5 4 4 7 7 6 3 3 4 5 5 5 5 5 6 6 7 7 7 7 7 7
1 1 1 1 1 1 2 2 1 1 1 1 1 2 2 3 2 2 4 4 4 7 5 4 7 10 9 4 3 3 4 5 5 5 6 6 6 6 7 7 7 7 7 7
1 1 1 1 1 2 2 2 2 2 2 2 2 2 2 2 3 3 3 7 8 8 5 7 10 11 8 3 3 4 4 5 5 5 5 6 6 6 6 6 7 7 7 8
1 1 1 1 1 1 1 2 2 2 2 2 3 3 2 2 3 4 4 5 8 8 5 7 10 10 5 3 4 4 5 5 6 5 5 5 6 6 6 6 7 7 7 7
1 1 0 0 0 1 1 1 1 2 2 3 3 3 3 3 3 4 4 4 6 7 6 5 6 7 5 5 5 5 5 6 7 6 6 6 6 7 7 7 8 7 7 7
2 1 1 1 1 1 1 1 2 2 3 3 4 4 4 4 3 4 4 4 5 5 5 5 5 5 5 5 5 5 5 5 6 6 6 6 6 6 7 8 8 8 8 9
Wind_Direction
255 273 181 211 217 193 197 204 211 226 223 241 227 207 198 183 168 163 174 169 168 170 170 164 160 162 163 170 174 173 167 177 200 209 212 229 255 268 279 286 289 284 286 290
274 268 224 269 252 221 221 221 226 243 258 253 219 149 165 180 178 183 195 194 179 167 162 168 175 174 163 171 172 158 165 188 209 210 227 249 261 267 277 283 288 287 285 284
256 305 359 270 239 210 206 210 203 228 237 167 164 186 188 184 174 181 193 183 171 168 170 175 177 166 162 166 143 140 159 194 218 227 248 262 275 283 283 283 287 285 285 284
227 82 237 246 207 186 194 227 207 201 187 172 182 168 138 153 165 171 161 147 138 133 128 119 119 122 115 107 111 110 94 292 268 261 267 281 285 284 284 283 282 283 285 283
179 224 268 286 246 172 183 252 215 196 195 145 100 73 15 21 133 147 148 144 134 122 111 103 108 115 104 87 83 74 17 324 309 293 283 288 290 289 287 288 288 285 288 286
175 204 238 257 269 241 127 268 229 175 183 167 136 171 242 146 104 105 103 105 100 91 88 88 90 104 103 91 73 22 322 314 316 310 298 290 286 289 288 287 288 295 300 295
206 228 260 278 291 116 168 249 188 171 177 169 182 201 158 128 111 109 104 100 97 92 84 79 90 104 105 93 7 311 329 333 331 321 305 291 290 292 293 297 301 299 298 298
183 210 253 274 125 172 213 115 132 145 151 143 139 129 132 128 121 112 103 98 101 100 80 59 84 110 109 31 309 330 345 344 332 320 312 313 302 301 301 298 299 299 300 301
194 214 264 180 182 197 120 134 141 139 141 138 138 142 136 128 125 118 114 113 111 114 90 53 64 118 138 300 322 346 349 330 321 322 320 318 310 304 304 299 294 297 295 296
232 263 266 273 313 352 26 154 145 140 143 140 145 147 141 138 131 125 120 123 116 108 94 27 13 43 237 297 342 356 320 313 316 319 319 318 311 306 302 295 292 292 292 294
242 262 318 311 296 315 39 68 81 83 103 131 139 146 152 148 147 144 136 125 119 123 138 294 328 327 322 334 4 319 305 304 310 312 306 308 307 295 298 281 283 293 290 290
235 227 212 257 312 88 106 98 108 103 89 98 131 148 147 149 153 145 141 128 122 139 175 292 315 310 310 306 285 279 298 299 295 298 299 301 303 308 310 308 309 307 306 304
237 261 193 189 44 65 96 96 95 107 126 118 106 128 136 142 141 135 139 153 185 212 240 271 295 300 299 292 283 266 272 286 289 295 300 302 303 306 310 315 315 314 314 314
25 79 98 59 66 72 89 89 85 76 78 93 100 102 109 113 120 133 176 219 221 238 269 281 289 290 288 285 279 279 278 285 292 283 288 292 295 297 299 305 311 311 315 316
358 37 137 101 86 78 80 89 88 78 70 64 74 87 98 108 119 201 258 271 272 281 290 294 290 290 296 285 283 282 281 279 284 286 287 289 294 296 297 297 299 303 306 313
50 77 93 97 96 85 80 88 97 88 79 76 70 63 64 78 54 352 347 4 310 280 286 285 282 287 297 291 291 284 280 292 300 294 293 296 296 297 298 297 298 299 301 304
101 99 98 103 111 96 89 98 116 120 104 101 82 61 60 56 35 1 341 334 306 283 280 276 282 290 291 287 277 277 281 290 302 301 293 293 293 293 294 294 294 295 294 299
108 119 131 139 135 123 91 73 86 98 112 163 97 84 72 45 325 313 317 324 326 316 297 287 287 292 289 284 277 272 277 280 285 287 292 293 293 291 291 290 291 292 295 299
78 85 84 86 98 110 105 81 59 52 36 91 115 117 309 299 297 301 308 315 312 308 306 301 310 315 295 290 298 276 282 285 287 289 290 297 301 294 290 290 291 291 293 296
66 72 76 71 68 84 88 69 62 46 41 107 111 56 338 318 312 311 314 301 283 280 291 304 311 299 292 291 300 278 277 280 283 288 290 289 290 292 291 291 292 292 293 294
72 72 76 76 64 56 58 65 72 46 36 79 129 266 294 308 312 311 316 310 306 305 306 313 316 298 292 301 302 285 280 281 283 285 288 290 291 291 292 293 293 294 295 296
76 80 79 78 73 45 25 29 41 34 25 7 338 314 315 318 320 312 282 272 292 312 319 304 299 300 311 316 301 289 284 282 283 284 284 286 288 291 292 294 294 295 295 295
86 93 88 82 77 35 17 21 16 12 347 327 311 302 296 293 291 291 300 300 299 310 318 300 306 312 319 325 309 295 293 292 290 288 286 285 286 288 290 293 293 294 296 296
87 82 70 62 75 69 24 351 350 346 329 311 301 290 286 297 299 278 275 303 316 316 311 306 314 317 325 328 308 298 294 292 290 290 292 292 290 290 290 291 293 294 294 294
96 88 84 86 73 6 332 342 348 340 332 322 317 311 298 274 275 295 301 300 310 318 313 314 321 326 327 309 300 294 292 289 291 293 291 294 294 294 292 292 292 294 294 294
96 99 73 317 286 295 310 323 322 318 318 318 318 313 308 301 292 295 301 303 305 315 316 309 313 317 313 305 299 295 293 297 303 302 296 295 294 294 295 296 295 294 293 294
67 53 38 19 358 337 321 313 306 304 302 297 303 308 309 311 310 310 309 308 308 310 309 309 308 306 304 303 302 299 297 295 294 293 294 293 293 293 295 294 295 295 296 294
Height
1487 1486 1487 1487 1487 1488 1490 1490 1492 1488 1488 1483 1482 1483 1484 1485 1486 1487 1487 1488 1489 1490 1490 1491 1492 1493 1493 1494 1495 1495 1495 1495 1496 1496 1495 1495 1494 1493 1492 1491 1489 1488 1487 1485
1489 1486 1486 1486 1484 1485 1486 1486 1486 1485 1484 1480 1480 1482 1483 1484 1484 1485 1485 1486 1487 1487 1488 1489 1490 1490 1491 1491 1492 1492 1492 1492 1492 1492 1492 1491 1490 1489 1488 1487 1485 1484 1482 1481
1490 1488 1485 1486 1480 1481 1482 1481 1481 1480 1478 1479 1480 1480 1481 1481 1482 1483 1483 1484 1485 1485 1486 1487 1487 1488 1488 1488 1489 1489 1489 1489 1489 1488 1488 1487 1486 1485 1484 1482 1481 1479 1478 1476
1493 1491 1489 1477 1475 1475 1476 1477 1477 1476 1476 1477 1477 1478 1479 1480 1480 1481 1481 1482 1483 1483 1484 1485 1485 1486 1486 1486 1486 1486 1486 1486 1485 1485 1484 1483 1482 1481 1480 1478 1477 1475 1473 1471
1494 1493 1485 1477 1474 1475 1477 1477 1474 1475 1475 1476 1477 1478 1479 1479 1480 1480 1480 1481 1482 1482 1482 1483 1483 1483 1484 1484 1483 1483 1483 1483 1482 1481 1480 1479 1478 1477 1476 1474 1472 1471 1469 1467
1494 1491 1484 1474 1473 1472 1475 1477 1472 1472 1473 1475 1476 1480 1479 1478 1479 1479 1480 1480 1480 1480 1481 1481 1481 1481 1481 1481 1481 1481 1480 1480 1479 1478 1477 1475 1474 1473 1472 1470 1468 1466 1464 1462
1492 1490 1482 1475 1473 1473 1478 1473 1470 1469 1471 1472 1474 1475 1476 1476 1477 1478 1478 1479 1479 1479 1479 1479 1479 1479 1479 1479 1478 1478 1477 1477 1476 1474 1473 1472 1471 1469 1468 1466 1464 1462 1460 1458
1489 1490 1482 1473 1472 1474 1472 1469 1468 1468 1469 1470 1471 1472 1473 1474 1475 1476 1477 1477 1478 1478 1478 1478 1478 1478 1477 1476 1476 1476 1475 1474 1472 1471 1470 1468 1467 1465 1464 1462 1459 1457 1455 1453
1480 1478 1472 1470 1469 1469 1468 1468 1468 1468 1469 1469 1470 1471 1472 1473 1474 1475 1475 1476 1476 1476 1476 1476 1476 1476 1475 1474 1474 1473 1472 1471 1469 1468 1466 1465 1463 1461 1459 1457 1455 1453 1450 1448
1476 1472 1470 1469 1468 1467 1467 1467 1467 1467 1468 1468 1468 1469 1470 1472 1473 1473 1474 1474 1475 1475 1475 1474 1474 1474 1473 1472 1471 1470 1469 1468 1466 1465 1463 1462 1460 1458 1455 1453 1451 1449 1446 1444
1473 1470 1469 1467 1467 1466 1466 1466 1466 1466 1467 1467 1468 1468 1469 1470 1471 1472 1472 1473 1473 1473 1473 1472 1472 1471 1471 1470 1469 1467 1466 1465 1463 1462 1460 1458 1456 1454 1452 1450 1448 1446 1443 1441
1468 1466 1467 1466 1465 1465 1465 1464 1465 1465 1466 1467 1467 1467 1468 1469 1469 1470 1470 1471 1471 1471 1471 1470 1470 1469 1468 1467 1466 1465 1463 1462 1460 1458 1456 1454 1452 1450 1448 1446 1444 1441 1439 1437
1464 1464 1464 1463 1464 1464 1464 1464 1464 1465 1465 1465 1466 1466 1467 1467 1468 1468 1469 1469 1469 1469 1469 1468 1467 1466 1466 1465 1463 1462 1460 1459 1457 1455 1453 1451 1448 1446 1443 1441 1439 1437 1434 1431
1463 1462 1462 1462 1463 1463 1463 1463 1464 1464 1464 1465 1465 1465 1466 1466 1466 1467 1467 1467 1467 1467 1466 1466 1465 1464 1463 1462 1460 1459 1457 1456 1454 1452 1450 1447 1445 1442 1440 1437 1434 1431 1429 1426
1462 1461 1461 1461 1462 1462 1462 1462 1463 1463 1464 1464 1464 1464 1465 1465 1465 1465 1465 1465 1465 1464 1464 1463 1462 1461 1460 1459 1457 1456 1454 1452 1450 1448 1446 1444 1441 1439 1436 1433 1430 1427 1424 1421
1461 1461 1461 1461 1461 1461 1462 1462 1462 1462 1463 1463 1463 1463 1463 1463 1463 1463 1463 1463 1462 1461 1461 1460 1459 1458 1457 1456 1454 1452 1450 1449 1447 1445 1442 1440 1437 1435 1432 1429 1426 1423 1420 1417
1460 1460 1460 1460 1460 1461 1461 1462 1462 1462 1462 1462 1462 1462 1462 1462 1462 1461 1461 1460 1460 1459 1458 1457 1456 1455 1454 1452 1450 1449 1447 1445 1443 1441 1438 1436 1434 1431 1428 1425 1422 1419 1416 1413
1460 1460 1461 1460 1460 1460 1461 1461 1461 1461 1461 1461 1461 1461 1460 1460 1460 1459 1459 1458 1457 1456 1455 1454 1453 1452 1450 1449 1447 1445 1443 1441 1439 1437 1435 1432 1430 1427 1424 1421 1418 1415 1412 1409
1460 1460 1460 1460 1461 1461 1460 1460 1460 1460 1460 1459 1459 1459 1458 1458 1458 1457 1456 1455 1454 1453 1452 1451 1450 1448 1446 1445 1443 1441 1439 1437 1435 1433 1431 1428 1426 1423 1420 1417 1414 1411 1408 1405
1459 1459 1460 1460 1460 1460 1460 1460 1459 1458 1458 1457 1457 1457 1457 1456 1455 1455 1454 1453 1452 1450 1449 1448 1446 1445 1443 1441 1440 1438 1436 1433 1431 1429 1426 1424 1421 1418 1416 1413 1410 1407 1404 1401
1459 1459 1459 1460 1460 1460 1459 1459 1458 1458 1457 1456 1456 1455 1455 1454 1453 1452 1451 1450 1449 1448 1446 1444 1443 1441 1439 1438 1436 1434 1432 1429 1427 1424 1422 1420 1417 1414 1412 1409 1406 1403 1400 1396
1459 1459 1459 1459 1459 1459 1459 1459 1458 1457 1456 1456 1455 1454 1453 1452 1451 1450 1449 1448 1446 1445 1443 1441 1439 1438 1436 1434 1432 1430 1428 1425 1423 1420 1418 1415 1413 1410 1407 1404 1401 1398 1395 1392
1460 1459 1459 1459 1459 1459 1458 1458 1457 1456 1456 1455 1454 1453 1452 1450 1449 1448 1446 1445 1443 1442 1440 1438 1436 1434 1432 1430 1428 1426 1424 1421 1419 1416 1414 1411 1409 1406 1403 1400 1397 1394 1391 1388
1459 1459 1459 1459 1459 1458 1458 1457 1457 1456 1455 1454 1453 1452 1450 1449 1447 1446 1444 1442 1440 1438 1436 1434 1432 1430 1428 1426 1424 1422 1420 1417 1415 1412 1410 1407 1405 1402 1399 1396 1393 1390 1387 1384
1459 1459 1459 1459 1458 1458 1457 1456 1456 1455 1454 1452 1451 1450 1449 1447 1445 1443 1442 1440 1437 1435 1433 1431 1429 1426 1424 1422 1420 1418 1415 1413 1411 1408 1406 1403 1401 1398 1395 1392 1389 1386 1383 1380
1459 1459 1458 1458 1458 1457 1456 1455 1454 1453 1452 1451 1449 1448 1447 1445 1443 1441 1439 1437 1434 1432 1430 1427 1425 1423 1420 1418 1416 1414 1411 1409 1407 1405 1402 1399 1397 1394 1391 1388 1385 1382 1379 1376
1458 1458 1458 1457 1457 1456 1455 1454 1453 1452 1450 1449 1447 1446 1444 1442 1440 1438 1436 1434 1431 1429 1427 1424 1422 1419 1417 1415 1412 1410 1408 1405 1403 1401 1398 1395 1393 1390 1387 1385 1382 1379 1376 1373